STARLINK-11741, 64064

Orbit data source: Space-Track

STARLINK-11741, 64064 is a payload satellite owned by SpaceX/Seattle (US) in LEO that was launched on Wed, 21 May 2025 UTC via an FALCON 9 launch vehicle from the Air Force Eastern Test Range (AFETR). Payload-class satellites include a variety of spacecraft equipped with specific instruments for various scientific and technological missions. These include communications satellites like Starlink; space stations such as the ISS; scientific satellites like the Hubble; Earth observation satellites from companies like Planet Labs, Umbra, and HawkEye 360; GPS; miniature CubeSats for education and research; and military/defense satellites.

Loading next visibility...
Identifier
64064, 2025-107A
Orbit
LEO
Country
Flag of USUS
Related business
Manufacturer
SpaceX/Seattle
Mission
Operational Commercial Communications
Bus & Motor
STARLINK V2MD, Unknown motor
Mass
960 kg wet, ~910 kg dry
Launch date (UTC)
2025-05-21 (1 year ago)
Launch vehicle
FALCON 9
Launch site
Air Force Eastern Test Range (AFETR)
Object type
Payload
Rocket body
Debris
Shape & HBR
Box + 2 Pan, 18.1 m
Radar Cross Section
36.964 m², Large (>1 m²)

Expand to show TLE details & history
Last TLE update: 17 hours ago

TLE from 17 hours ago
0 STARLINK-11741
1 64064U 25107A   26171.13244775  .00206220  00000-0  15610-2 0  9992
2 64064  42.9979 201.2785 0002714 279.4381  80.6180 15.70991999 63400
Epoch: 2026-06-20T03:10Z
TLE epoch observation values (Epoch: 2026-06-20T03:10:43.485Z)
Latitude
-0.00001°
Longitude
-114.75416°
Altitude
355.534 km
Speed
7.698 km/s
True Right ascension
13h 25m 06s
True Declination
0° 00' 00"
Sunlit
Object was in full shadow at epoch
Visualization orbit readout
Latitude
Unknown
Longitude
Unknown
Altitude
Unknown
Speed
Unknown
Apparent Right ascension
Unknown
Apparent Declination
Unknown
Sunlit
N/A
Visualization observer readout
Local Sidereal Time
07:18:44
Azimuth
Unknown
Elevation
Unknown
Doppler factor
Unknown
Orbital elements
Apogee altitude
359.871 km
Perigee altitude
356.215 km
Semi-major axis
6,736.18 km
Eccentricity
0.00027
Inclination
42.9979°
RAAN
201.2785°
Arg. of periapsis
279.4381°
True anomaly
80.64869°
Mean anomaly
80.618°
Eccentric anomaly
80.63334°
Mean motion
3.92575 °/min
Orbital period
91.7 mins
BSTAR
0.001561
Loading maneuver chart data...
Computing Atmospheric mass density...
Loading historical data...
Loading historical data...
Loading historical data...
Loading historical data...
Loading historical data...
Loading historical data...
Loading historical data...

Documentation

Showing up to 5 results
|